STARLINK-1096, 44942

Orbit data source: Space-Track

STARLINK-1096, 44942 is a payload satellite owned by SpaceX/Seattle (US) in LEO that was launched on Tue, 07 Jan 2020 UTC via an FALCON 9 launch vehicle from the Air Force Eastern Test Range (AFETR). Payload-class satellites include a variety of spacecraft equipped with specific instruments for various scientific and technological missions. These include communications satellites like Starlink; space stations such as the ISS; scientific satellites like the Hubble; Earth observation satellites from companies like Planet Labs, Umbra, and HawkEye 360; GPS; miniature CubeSats for education and research; and military/defense satellites.

Not visible in the next 10 days
Identifier
44942, 2020-001AE
Orbit
LEO
Country
Flag of USUS
Related business
Manufacturer
SpaceX/Seattle
Mission
Partially operational Commercial Communications
Bus & Motor
STARLINK, Unknown motor
Mass
260 kg wet, ~248 kg dry
Launch date (UTC)
2020-01-07 (6 years ago)
Launch vehicle
FALCON 9
Launch site
Air Force Eastern Test Range (AFETR)
Object type
Payload
Rocket body
Debris
Shape & HBR
Box + 1 Pan, 10.1 m
Radar Cross Section
13.562 m², Large (>1 m²)

Expand to show TLE details & history
Last TLE update: 17 hours ago

TLE from 17 hours ago
0 STARLINK-1096
1 44942U 20001AE  25288.00002315  .00172290  00000-0  76325-3 0  9999
2 44942  52.9905  29.0623 0005119 342.2403 347.6290 15.83395876  6058
Epoch: 2025-10-15T00:00Z
TLE epoch observation values (Epoch: 2025-10-15T00:00:02.000Z)
Latitude
-23.83831°
Longitude
-14.06778°
Altitude
324.344 km
Speed
7.716 km/s
True Right ascension
00h 38m 53s
True Declination
-23° 42' 12"
Sunlit
Object was in full shadow at epoch
Visualization orbit readout
Latitude
Unknown
Longitude
Unknown
Altitude
Unknown
Speed
Unknown
Apparent Right ascension
Unknown
Apparent Declination
Unknown
Sunlit
N/A
Visualization observer readout
Local Sidereal Time
11:53:25
Azimuth
Unknown
Elevation
Unknown
Doppler factor
Unknown
Orbital elements
Apogee altitude
324.565 km
Perigee altitude
317.706 km
Semi-major axis
6,699.273 km
Eccentricity
0.00051
Inclination
52.9905°
RAAN
29.0623°
Arg. of periapsis
342.2403°
True anomaly
347.61642°
Mean anomaly
347.629°
Eccentric anomaly
347.62271°
Mean motion
3.95824 °/min
Orbital period
90.95 mins
BSTAR
0.00076325
Loading maneuver chart data...
Computing Atmospheric mass density...

Documentation

Showing up to 5 results
|